Weather History for Jackson, TN

Change the Weather History Date:

Thursday, October 3, 2013

  Actual Average Record
Temperature  
Mean Temperature 76 °F 65 °F  
Max Temperature 85 °F 78 °F 93 °F (1954)
Min Temperature 67 °F 52 °F 33 °F (1974)
Degree Days  
Heating Degree Days 0 3  
Month to date heating degree days 0 9  
Since 1 July heating degree days 8 35  
Cooling Degree Days 11 3  
Month to date cooling degree days 29 9  
Year to date cooling degree days 1550 1652  
Growing Degree Days 25 (Base 50)    
Moisture  
Dew Point 66 °F    
Average Humidity 72    
Maximum Humidity 93    
Minimum Humidity 51    
Precipitation  
Precipitation 0.00 in 0.12 in 1.04 in (1990)
Month to date precipitation T 0.36  
Year to date precipitation 47.95 39.61  
Snow  
Snow 0.00 in 0.00 in 0.00 in (2002)
Month to date snowfall 0.0 0.0  
Since 1 July snowfall 0.0 0.0  
Since 1 September snowfall 0.0 0.0  
Snow Depth 0.00 in    
Sea Level Pressure  
Sea Level Pressure 30.02 in    
Wind  
Wind Speed 5 mph (South)    
Max Wind Speed 14 mph    
Max Gust Speed 17 mph    
Visibility 10 miles    
Events      
T = Trace of Precipitation, MM = Missing Value Source: NWS Daily Summary

Daily Weather History Graph

Daily Weather History Graph

Search for Another Location

Airport:

Trip Planner

Search our weather history database for the weather conditions in past years. The results will help you decide how hot, cold, wet, or windy it might be!

Date:

Astronomy

Oct. 03, 2013 Rise Set
Actual Time 6:52 AM CDT 6:36 PM CDT
Civil Twilight 6:26 AM CDT 7:01 PM CDT
Nautical Twilight 5:57 AM CDT 7:31 PM CDT
Astronomical Twilight 5:27 AM CDT 8:00 PM CDT
Moon 5:27 AM CDT (10/3) 5:43 PM CDT (10/3)
Length of Visible Light 12h 34m
Length of Day
11h 43m
Waning Crescent, 2% of the Moon is Illuminated
Oct 3
Waning Crescent
Oct 4
New
Oct 11
First Quarter
Oct 18
Full
Oct 26
Last Quarter

Hourly Weather History & Observations

Time (CDT) Temp. Heat Index Dew Point Humidity Pressure Visibility Wind Dir Wind Speed Gust Speed Precip Events Conditions
12:53 AM 71.1 °F - 66.9 °F 87% 30.04 in 10.0 mi SSE 3.5 mph - N/A   Partly Cloudy
1:53 AM 71.1 °F - 66.9 °F 87% 30.04 in 10.0 mi Calm Calm - N/A   Overcast
2:53 AM 70.0 °F - 66.0 °F 87% 30.02 in 10.0 mi Calm Calm - N/A   Partly Cloudy
3:53 AM 66.9 °F - 64.9 °F 93% 30.02 in 10.0 mi Calm Calm - N/A   Clear
4:53 AM 66.9 °F - 64.9 °F 93% 30.03 in 10.0 mi Calm Calm - N/A   Partly Cloudy
5:53 AM 66.9 °F - 64.0 °F 90% 30.04 in 10.0 mi SSE 3.5 mph - N/A   Scattered Clouds
6:53 AM 68.0 °F - 64.9 °F 90% 30.04 in 10.0 mi South 4.6 mph - N/A   Partly Cloudy
7:53 AM 69.1 °F - 66.0 °F 90% 30.06 in 10.0 mi South 3.5 mph - N/A   Clear
8:53 AM 73.9 °F - 66.0 °F 76% 30.07 in 10.0 mi SSW 6.9 mph - N/A   Clear
9:53 AM 77.0 °F - 64.9 °F 66% 30.07 in 10.0 mi South 6.9 mph - N/A   Scattered Clouds
10:53 AM 80.1 °F 81.9 °F 64.9 °F 60% 30.06 in 10.0 mi South 8.1 mph 16.1 mph N/A   Partly Cloudy
11:53 AM 82.0 °F 84.5 °F 66.9 °F 60% 30.04 in 10.0 mi South 11.5 mph - N/A   Partly Cloudy
12:53 PM 82.9 °F 85.4 °F 66.9 °F 58% 30.03 in 10.0 mi Variable 6.9 mph - N/A   Mostly Cloudy
1:53 PM 82.9 °F 85.0 °F 66.0 °F 56% 30.01 in 10.0 mi SSE 8.1 mph - N/A   Mostly Cloudy
2:53 PM 84.0 °F 85.8 °F 64.9 °F 53% 29.98 in 10.0 mi SSE 6.9 mph - N/A   Clear
3:53 PM 84.0 °F 85.8 °F 64.9 °F 53% 29.98 in 10.0 mi SSE 8.1 mph - N/A   Scattered Clouds
4:53 PM 82.9 °F 85.0 °F 66.0 °F 56% 29.97 in 10.0 mi SSE 6.9 mph - N/A   Partly Cloudy
5:53 PM 80.1 °F 82.3 °F 66.9 °F 64% 29.97 in 10.0 mi Calm Calm - N/A   Clear
6:53 PM 77.0 °F - 66.9 °F 71% 29.98 in 10.0 mi Calm Calm - N/A   Clear
7:53 PM 75.0 °F - 68.0 °F 79% 29.99 in 10.0 mi Variable 3.5 mph - N/A   Clear
8:53 PM 73.9 °F - 68.0 °F 82% 30.01 in 10.0 mi South 5.8 mph - N/A   Clear
9:53 PM 73.0 °F - 66.9 °F 81% 30.02 in 10.0 mi Variable 4.6 mph - N/A   Clear
11:53 PM 71.1 °F - 66.9 °F 87% 30.02 in 10.0 mi South 4.6 mph - N/A   Clear